Location: Unspecified
(0.0000°N, 0.0000°E)
Time: 18:46:04
(UTC+00:00)

Vanguard 1 Rocket - All Passes

Search period start: 03 March 2015 00:00
Search period end: 13 March 2015 00:00
Orbit: 656 x 4223 km, 34.3° (Epoch: 27 February)

Date Brightness Start Highest point End Pass type
(mag) Time Alt. Az. Time Alt. Az. Time Alt. Az.
03 Mar - 00:02:12 10° WNW 00:26:41 76° SW 00:50:31 10° SE visible
03 Mar - 02:39:18 10° W 03:01:39 33° SSW 03:17:17 10° SSE visible
03 Mar - 05:33:04 10° SSW 05:36:56 11° SSW 05:39:32 10° S visible
03 Mar - 10:33:16 10° SSW 10:38:24 32° SSE 10:42:26 10° E daylight
03 Mar - 13:00:09 10° W 13:03:28 20° NNW 13:07:00 10° NNE daylight
03 Mar - 20:23:23 10° NNW 20:37:37 35° NE 20:59:47 10° E visible
03 Mar - 22:49:12 10° NW 23:11:04 83° NE 23:37:06 10° SE visible
04 Mar - 01:21:25 10° WNW 01:46:01 47° SSW 02:06:01 10° SE visible
04 Mar - 04:07:39 10° WSW 04:21:46 18° SSW 04:31:10 10° SSE visible
04 Mar - 09:22:32 10° SSW 09:27:04 18° SSE 09:30:39 10° ESE daylight
04 Mar - 11:48:06 10° WSW 11:52:52 51° NW 11:57:13 10° NE daylight
04 Mar - 19:13:41 10° N 19:23:19 21° NNE 19:38:43 10° ENE visible
04 Mar - 21:37:27 10° NW 21:55:55 62° NE 22:22:04 10° ESE visible
05 Mar - 00:06:10 10° WNW 00:30:11 64° SW 00:53:51 10° SE visible
05 Mar - 02:45:19 10° W 03:06:04 27° SSW 03:20:40 10° SSE visible
05 Mar - 05:39:14 10° SSW 05:42:13 10° S 05:44:25 10° S visible
05 Mar - 08:11:39 10° S 08:14:52 12° SSE 08:17:42 10° SE daylight
05 Mar - 10:36:34 10° SW 10:42:30 58° SE 10:46:51 10° ENE daylight
05 Mar - 13:06:27 10° NW 13:07:39 11° NNW 13:08:41 10° NNW daylight
05 Mar - 18:06:55 10° NNE 18:09:18 11° NNE 18:13:21 10° NE daylight
05 Mar - 20:26:39 10° NNW 20:41:25 42° NE 21:04:56 10° ESE visible
05 Mar - 22:52:50 10° NW 23:14:27 85° SW 23:40:36 10° SE visible
06 Mar - 01:26:24 10° W 01:50:01 39° SSW 02:09:18 10° SSE visible
06 Mar - 04:14:53 10° SW 04:26:52 16° SSW 04:35:09 10° SSE visible
06 Mar - 06:59:41 10° S 07:01:44 11° S 07:03:43 10° SSE daylight
06 Mar - 09:25:08 10° SSW 09:31:29 28° SSE 09:35:53 10° E daylight
06 Mar - 11:52:33 10° W 11:56:47 27° NW 12:00:34 10° NNE daylight
06 Mar - 19:16:49 10° NNW 19:27:31 26° NE 19:45:10 10° E visible
06 Mar - 21:40:53 10° NW 21:59:19 73° NE 22:25:58 10° ESE visible
07 Mar - 00:10:27 10° WNW 00:33:52 54° SSW 00:57:06 10° SE visible
07 Mar - 02:51:52 10° WSW 03:10:49 23° SSW 03:24:15 10° SSE visible
07 Mar - 05:42:54 10° SSW 05:47:32 11° S 05:51:18 10° SSE visible
07 Mar - 08:13:23 10° SSW 08:19:35 19° SSE 08:24:07 10° ESE daylight
07 Mar - 10:40:15 10° WSW 10:46:26 78° NW 10:50:52 10° NE daylight
07 Mar - 18:08:41 10° N 18:13:56 14° NNE 18:22:10 10° ENE daylight
07 Mar - 20:29:58 10° NNW 20:44:59 52° NE 21:09:32 10° ESE visible
07 Mar - 22:56:41 10° WNW 23:17:57 73° SW 23:43:56 10° SE visible
08 Mar - 01:31:53 10° W 01:54:20 33° SSW 02:12:39 10° SSE visible
08 Mar - 04:21:34 10° SW 04:32:11 15° S 04:39:50 10° SSE visible
08 Mar - 07:00:43 10° SSW 07:06:45 15° S 07:11:29 10° SE daylight
08 Mar - 09:28:10 10° SW 09:35:44 47° SSE 09:40:30 10° ENE daylight
08 Mar - 11:57:43 10° WNW 12:00:42 16° NW 12:03:20 10° N daylight
08 Mar - 19:19:59 10° NNW 19:31:25 33° NE 19:50:53 10° E visible
08 Mar - 21:44:28 10° NW 22:02:41 86° NE 22:29:34 10° SE visible
09 Mar - 00:15:06 10° W 00:37:49 46° SSW 01:00:19 10° SE visible
09 Mar - 02:58:45 10° WSW 03:15:53 20° SSW 03:28:12 10° SSE visible
09 Mar - 05:45:48 10° SSW 05:52:48 14° S 05:58:19 10° SSE visible
09 Mar - 08:15:53 10° SSW 08:24:10 28° SSE 08:29:27 10° E daylight
09 Mar - 10:44:18 10° WSW 10:50:14 43° NW 10:54:30 10° NNE daylight
09 Mar - 18:11:15 10° N 18:18:16 18° NE 18:29:37 10° ENE visible
09 Mar - 20:33:23 10° NW 20:48:25 62° NE 21:13:42 10° ESE visible
09 Mar - 23:00:47 10° WNW 23:21:37 62° SSW 23:47:08 10° SE visible
10 Mar - 01:37:51 10° WSW 01:59:01 28° SSW 02:16:10 10° SSE visible
10 Mar - 04:27:10 10° SW 04:37:36 15° S 04:45:22 10° SSE visible
10 Mar - 07:02:55 10° SSW 07:11:37 20° SSE 07:17:34 10° ESE daylight
10 Mar - 09:31:34 10° SW 09:39:47 77° SE 09:44:42 10° ENE daylight
10 Mar - 19:23:14 10° NNW 19:35:03 41° NE 19:55:59 10° ESE visible
10 Mar - 21:48:14 10° WNW 22:06:10 81° SW 22:32:55 10° SE visible
11 Mar - 00:20:09 10° W 00:42:04 38° SSW 01:03:34 10° SSE visible
11 Mar - 03:05:32 10° SW 03:21:12 19° SSW 03:32:42 10° SSE visible
11 Mar - 05:48:31 10° SSW 05:57:57 17° S 06:04:50 10° SE visible
11 Mar - 08:18:45 10° SW 08:28:34 42° SSE 08:34:12 10° E daylight
11 Mar - 10:48:52 10° W 10:53:59 25° NW 10:57:47 10° NNE daylight
11 Mar - 18:14:06 10° N 18:22:18 23° NE 18:36:07 10° E visible
11 Mar - 20:36:55 10° NW 20:51:48 75° NE 21:17:28 10° ESE visible
11 Mar - 23:05:12 10° WNW 23:25:32 52° SSW 23:50:15 10° SE visible
12 Mar - 01:44:15 10° WSW 02:04:02 24° SSW 02:19:59 10° SSE visible
12 Mar - 04:31:37 10° SSW 04:43:00 17° S 04:51:27 10° SE visible
12 Mar - 07:05:27 10° SSW 07:16:20 28° SSE 07:22:56 10° E daylight
12 Mar - 09:35:17 10° WSW 09:43:37 66° NW 09:48:35 10° NE daylight
12 Mar - 17:09:08 10° NNE 17:09:42 10° NE 17:11:29 10° NE daylight
12 Mar - 19:26:34 10° NNW 19:38:32 51° NE 20:00:30 10° ESE visible
12 Mar - 21:52:13 10° WNW 22:09:49 69° SW 22:36:06 10° SE visible
